FW0333 Weather Reports


time (UTC)temp
C
wind
direction
speed
KPH
gust
KPH
rain 1hr
cm
rain 24hr
cm
rain mn
cm
humidity
%
barometer
mb
20260507041235 13 214 0.0 0.0 0.00 0.00 0.00 91 1019.5
20260507040734 13 214 0.0 0.0 0.00 0.00 0.00 90 1019.4
20260507040235 13 214 0.0 0.0 0.00 0.00 0.00 90 1019.4
20260507035734 13 214 0.0 0.0 0.00 0.00 0.00 90 1019.3
20260507035235 13 214 0.0 0.0 0.00 0.00 0.00 90 1019.3
20260507034235 14 214 0.0 0.0 0.00 0.00 0.00 89 1019.2
20260507033234 14 214 0.0 0.0 0.00 0.00 0.00 89 1019.1
20260507032735 14 214 0.0 0.0 0.00 0.00 0.00 89 1019.0
20260507032235 15 214 0.0 0.0 0.00 0.00 0.00 88 1019.0
20260507031733 15 214 0.0 0.0 0.00 0.00 0.00 88 1018.9
20260507031230 15 214 0.0 0.0 0.00 0.00 0.00 88 1018.8
20260507030730 15 214 0.0 0.0 0.00 0.00 0.00 87 1018.8
20260507030228 15 214 0.0 0.0 0.00 0.00 0.00 87 1018.7
20260507025727 15 214 0.0 0.0 0.00 0.00 0.00 86 1018.7
20260507025227 15 214 0.0 0.0 0.00 0.00 0.00 86 1018.6
20260507024726 16 214 0.0 0.0 0.00 0.00 0.00 86 1018.6
20260507024225 16 214 0.0 0.0 0.00 0.00 0.00 85 1018.4
20260507023724 16 214 0.0 0.0 0.00 0.00 0.00 85 1018.4
20260507023224 16 214 0.0 0.0 0.00 0.00 0.00 84 1018.3
20260507022722 16 214 0.0 0.0 0.00 0.00 0.00 84 1018.3
20260507021722 16 214 0.0 0.0 0.00 0.00 0.00 83 1018.2
20260507021222 17 214 0.0 0.0 0.00 0.00 0.00 82 1018.2
20260507020722 17 214 0.0 0.0 0.00 0.00 0.00 82 1018.2
20260507020222 17 214 0.0 0.0 0.00 0.00 0.00 82 1018.2
20260507015722 17 214 0.0 0.0 0.00 0.00 0.00 81 1018.3
20260507015222 17 214 0.0 0.0 0.00 0.00 0.00 80 1018.2
20260507014722 18 214 0.0 0.0 0.00 0.00 0.00 79 1018.3
20260507013722 18 226 0.0 0.0 0.00 0.00 0.00 77 1018.2
20260507012722 18 85 0.0 0.0 0.00 0.00 0.00 76 1018.1
20260507012222 19 215 0.0 0.0 0.00 0.00 0.00 76 1018.1
20260507011722 19 215 0.0 1.6 0.00 0.00 0.00 74 1018.1
20260507011223 19 214 0.0 1.6 0.00 0.00 0.00 74 1018.0
20260507010722 20 239 0.0 0.0 0.00 0.00 0.00 73 1018.2
20260507010223 20 302 0.0 0.0 0.00 0.00 0.00 73 1018.0
20260507005720 20 319 0.0 0.0 0.00 0.00 0.00 72 1018.1
20260507005220 20 120 0.0 0.0 0.00 0.00 0.00 69 1018.0
20260507004720 20 96 0.0 0.0 0.00 0.00 0.00 70 1018.0
20260507004220 20 226 0.0 0.0 0.00 0.00 0.00 70 1018.0
20260507003720 20 65 0.0 0.0 0.00 0.00 0.00 68 1018.0
20260507003220 20 20 0.0 0.0 0.00 0.00 0.00 68 1017.9
20260507002720 20 327 0.0 0.0 0.00 0.00 0.00 67 1018.0
20260507001720 21 243 0.0 1.6 0.00 0.00 0.00 66 1018.0
20260507001224 21 27 0.0 1.6 0.00 0.00 0.00 65 1018.0
20260507000718 21 20 0.0 0.0 0.00 0.00 0.00 65 1017.9
20260507000219 21 45 0.0 0.0 0.00 0.00 0.00 63 1017.9
20260506235717 21 91 0.0 4.8 0.00 0.00 0.00 64 1017.9
20260506235217 21 170 0.0 4.8 0.00 0.00 0.00 64 1017.9
20260506234718 21 36 0.0 0.0 0.00 0.00 0.00 64 1017.9
20260506234218 21 20 0.0 0.0 0.00 0.00 0.00 63 1017.8
20260506233718 22 125 0.0 0.0 0.00 0.00 0.00 63 1017.8
20260506233218 22 28 0.0 0.0 0.00 0.00 0.00 64 1017.9
20260506232718 22 25 0.0 0.0 0.00 0.00 0.00 62 1017.9
20260506232217 22 326 0.0 0.0 0.00 0.00 0.00 62 1018.0
20260506231718 21 203 0.0 0.0 0.00 0.00 0.00 63 1018.0
20260506230717 22 32 0.0 0.0 0.00 0.00 0.00 62 1018.1
20260506225716 22 306 0.0 0.0 0.00 0.00 0.00 62 1018.2
20260506225216 22 104 0.0 0.0 0.00 0.00 0.00 61 1018.3
20260506224714 22 9 0.0 0.0 0.00 0.00 0.00 61 1018.3
20260506224212 22 174 0.0 0.0 0.00 0.00 0.00 60 1018.5
20260506223711 22 212 0.0 0.0 0.00 0.00 0.00 61 1018.4
20260506223210 22 259 0.0 0.0 0.00 0.00 0.00 61 1018.4
20260506222708 22 89 0.0 0.0 0.00 0.00 0.00 61 1018.5
20260506221708 22 25 0.0 0.0 0.00 0.00 0.00 62 1018.5
20260506221207 22 24 0.0 0.0 0.00 0.00 0.00 61 1018.5
20260506220708 22 135 0.0 1.6 0.00 0.00 0.00 61 1018.6
20260506220208 22 17 0.0 1.6 0.00 0.00 0.00 63 1018.7
20260506215208 22 275 0.0 0.0 0.00 0.00 0.00 62 1018.8
20260506214705 22 224 0.0 0.0 0.00 0.00 0.00 63 1018.9
20260506214206 22 323 0.0 0.0 0.00 0.00 0.00 62 1019.0
20260506213705 22 218 0.0 0.0 0.00 0.00 0.00 63 1019.1
20260506213205 21 124 0.0 1.6 0.00 0.00 0.00 63 1019.3
20260506212706 21 114 0.0 1.6 0.00 0.00 0.00 64 1019.1
20260506212203 21 113 0.0 1.6 0.00 0.00 0.00 63 1019.3
20260506211702 22 56 0.0 0.0 0.00 0.00 0.00 61 1019.4
20260506211202 22 117 0.0 0.0 0.00 0.00 0.00 63 1019.4
20260506210159 21 211 0.0 0.0 0.00 0.00 0.00 65 1019.5
20260506205659 21 217 0.0 0.0 0.00 0.00 0.00 63 1019.5
20260506205159 21 188 0.0 0.0 0.00 0.00 0.00 63 1019.5
20260506204659 21 121 0.0 0.0 0.00 0.00 0.00 64 1019.5
20260506204200 21 243 0.0 1.6 0.00 0.00 0.00 64 1019.5
20260506203159 21 206 0.0 1.6 0.00 0.00 0.00 64 1019.4
20260506202700 21 153 0.0 0.0 0.00 0.00 0.00 65 1019.6
20260506202200 21 158 0.0 0.0 0.00 0.00 0.00 65 1019.6
20260506201659 21 333 0.0 0.0 0.00 0.00 0.00 64 1019.7
20260506200659 20 1 0.0 1.6 0.00 0.00 0.00 66 1019.8
20260506200159 20 111 0.0 1.6 0.00 0.00 0.00 67 1019.8
20260506195659 20 42 0.0 1.6 0.00 0.00 0.00 66 1019.8
20260506194157 20 4 0.0 1.6 0.00 0.00 0.00 67 1019.9
20260506193658 20 226 0.0 1.6 0.00 0.00 0.00 69 1019.9
20260506193157 19 325 0.0 0.0 0.00 0.00 0.00 67 1019.9
20260506192657 19 349 0.0 0.0 0.00 0.00 0.00 69 1019.8
20260506192155 20 21 0.0 1.6 0.00 0.00 0.00 68 1020.0
20260506191653 19 245 0.0 1.6 0.00 0.00 0.00 69 1019.8
20260506191154 19 247 0.0 1.6 0.00 0.00 0.00 69 1020.0
20260506190651 19 278 0.0 0.0 0.00 0.00 0.00 72 1020.0
20260506190150 18 114 0.0 0.0 0.00 0.00 0.00 71 1020.1
20260506185649 19 14 0.0 0.0 0.00 0.00 0.00 70 1020.0
20260506185149 18 27 0.0 0.0 0.00 0.00 0.00 71 1020.0
20260506184650 18 288 0.0 0.0 0.00 0.00 0.00 73 1020.1
20260506184150 18 49 0.0 1.6 0.00 0.00 0.00 73 1020.1
20260506183649 18 75 0.0 1.6 0.00 0.00 0.00 73 1020.1
20260506183148 18 72 0.0 0.0 0.00 0.00 0.00 72 1020.3
20260506182647 18 71 0.0 0.0 0.00 0.00 0.00 73 1020.1
20260506182148 18 20 0.0 0.0 0.00 0.00 0.00 74 1020.2
20260506181647 18 25 0.0 0.0 0.00 0.00 0.00 73 1020.2
20260506181147 18 100 0.0 0.0 0.00 0.00 0.00 73 1020.2
20260506180647 17 57 0.0 0.0 0.00 0.00 0.00 75 1020.3
20260506180147 17 139 0.0 1.6 0.00 0.00 0.00 76 1020.3
20260506175645 17 315 0.0 1.6 0.00 0.00 0.00 76 1020.2
20260506175145 17 221 0.0 0.0 0.00 0.00 0.00 76 1020.3
20260506174145 16 228 0.0 0.0 0.00 0.00 0.00 78 1020.3
20260506173643 15 84 0.0 0.0 0.00 0.00 0.00 80 1020.3
20260506173143 15 91 0.0 0.0 0.00 0.00 0.00 82 1020.3
20260506172643 15 29 0.0 0.0 0.00 0.00 0.00 81 1020.3
20260506171643 15 234 0.0 1.6 0.00 0.00 0.00 83 1020.4
20260506171144 14 233 0.0 1.6 0.00 0.00 0.00 83 1020.4
20260506170643 14 18 0.0 0.0 0.00 0.00 0.00 84 1020.7
20260506170143 13 322 0.0 0.0 0.00 0.00 0.00 86 1020.6
20260506165641 13 24 0.0 0.0 0.00 0.00 0.00 86 1020.4
20260506165141 13 352 0.0 0.0 0.00 0.00 0.00 87 1020.7
20260506164639 13 243 0.0 0.0 0.00 0.00 0.00 87 1020.7
20260506164139 13 297 0.0 0.0 0.00 0.00 0.00 88 1020.6
20260506163639 12 297 0.0 0.0 0.00 0.00 0.00 88 1020.6
20260506163137 12 298 0.0 0.0 0.00 0.00 0.00 89 1020.4
20260506162637 12 307 0.0 0.0 0.00 0.00 0.00 89 1020.7
20260506162137 12 321 0.0 0.0 0.00 0.00 0.00 90 1020.6
20260506161637 12 321 0.0 0.0 0.00 0.00 0.00 89 1020.6
20260506161136 12 6 0.0 0.0 0.00 0.00 0.00 90 1020.6
20260506160636 12 30 0.0 0.0 0.00 0.00 0.00 89 1020.4
20260506160137 12 338 0.0 0.0 0.00 0.00 0.00 88 1020.4
20260506155136 12 337 0.0 0.0 0.00 0.00 0.00 88 1020.6
20260506154134 12 322 0.0 0.0 0.00 0.00 0.00 89 1020.6
20260506153635 12 316 0.0 0.0 0.00 0.00 0.00 89 1020.4
20260506153133 12 35 0.0 0.0 0.00 0.00 0.00 89 1020.4
20260506152633 12 340 0.0 0.0 0.00 0.00 0.00 90 1020.3
20260506152133 12 309 0.0 0.0 0.00 0.00 0.00 90 1020.3
20260506151633 12 30 0.0 0.0 0.00 0.00 0.00 90 1020.4
20260506150630 12 129 0.0 0.0 0.00 0.00 0.00 92 1020.4
20260506150131 11 129 0.0 0.0 0.00 0.00 0.00 92 1020.4
20260506145629 11 324 0.0 0.0 0.00 0.00 0.00 93 1020.4
20260506145126 11 324 0.0 0.0 0.00 0.00 0.00 93 1020.4
20260506143626 11 221 0.0 0.0 0.00 0.00 0.00 94 1020.3
20260506143124 11 214 0.0 0.0 0.00 0.00 0.00 94 1020.3
20260506142625 11 214 0.0 0.0 0.00 0.00 0.00 94 1020.3
20260506142123 11 214 0.0 0.0 0.00 0.00 0.00 94 1020.2
20260506141622 11 214 0.0 0.0 0.00 0.00 0.00 94 1020.2
20260506141123 11 214 0.0 0.0 0.00 0.00 0.00 94 1020.2
20260506140622 11 214 0.0 0.0 0.00 0.00 0.00 94 1020.1
20260506140121 11 214 0.0 0.0 0.00 0.00 0.00 94 1020.1
20260506135619 10 214 0.0 0.0 0.00 0.00 0.00 94 1020.1
20260506134618 10 214 0.0 0.0 0.00 0.00 0.00 94 1019.9
20260506134117 10 214 0.0 0.0 0.00 0.00 0.00 94 1019.8
20260506133616 10 214 0.0 0.0 0.00 0.00 0.00 94 1019.7
20260506133114 10 214 0.0 0.0 0.00 0.00 0.00 94 1019.8
20260506132614 10 214 0.0 0.0 0.00 0.00 0.00 94 1019.7
20260506132115 10 214 0.0 0.0 0.00 0.00 0.00 94 1019.6
20260506131614 10 214 0.0 0.0 0.00 0.00 0.00 94 1019.6
20260506131113 10 214 0.0 0.0 0.00 0.00 0.00 94 1019.5
20260506130613 10 214 0.0 0.0 0.00 0.00 0.00 94 1019.4
20260506130112 10 214 0.0 0.0 0.00 0.00 0.00 94 1019.4
20260506125613 10 214 0.0 0.0 0.00 0.00 0.00 94 1019.5
20260506124612 10 214 0.0 0.0 0.00 0.00 0.00 94 1019.4
20260506123613 10 214 0.0 0.0 0.00 0.00 0.00 94 1019.4
20260506123112 10 214 0.0 0.0 0.00 0.00 0.00 94 1019.4
20260506122612 10 214 0.0 0.0 0.00 0.00 0.00 94 1019.5
20260506121613 10 214 0.0 0.0 0.00 0.00 0.00 93 1019.3
20260506120613 10 214 0.0 0.0 0.00 0.00 0.00 93 1019.3
20260506120112 10 214 0.0 0.0 0.00 0.00 0.00 93 1019.2
20260506115612 10 214 0.0 0.0 0.00 0.00 0.00 93 1019.1
20260506115113 10 214 0.0 0.0 0.00 0.00 0.00 93 1019.2
20260506114612 10 214 0.0 0.0 0.00 0.03 0.00 93 1019.1
20260506114110 10 214 0.0 0.0 0.00 0.03 0.00 93 1019.0
20260506113609 10 214 0.0 0.0 0.00 0.03 0.00 93 1019.0
20260506113109 11 214 0.0 0.0 0.00 0.03 0.00 93 1019.1
20260506112608 11 214 0.0 0.0 0.00 0.03 0.00 93 1019.0
20260506112108 11 214 0.0 0.0 0.00 0.03 0.00 93 1019.1
20260506111609 11 214 0.0 0.0 0.00 0.03 0.00 93 1019.0
20260506111104 11 214 0.0 0.0 0.00 0.03 0.00 93 1019.0
20260506110604 11 214 0.0 0.0 0.00 0.03 0.00 93 1019.0
20260506105603 11 214 0.0 0.0 0.00 0.03 0.00 93 1018.9
20260506105103 11 214 0.0 0.0 0.00 0.03 0.00 93 1018.8
20260506104102 11 214 0.0 0.0 0.00 0.05 0.00 93 1018.8
20260506103601 11 214 0.0 0.0 0.00 0.05 0.00 93 1018.8
20260506103100 11 214 0.0 0.0 0.00 0.05 0.00 93 1018.8
20260506102600 11 214 0.0 0.0 0.00 0.05 0.00 93 1018.8
20260506102059 11 214 0.0 0.0 0.00 0.05 0.00 93 1018.8
20260506101557 11 214 0.0 0.0 0.00 0.05 0.00 93 1018.8
20260506101056 11 214 0.0 0.0 0.00 0.05 0.00 93 1018.9
20260506100557 11 214 0.0 0.0 0.00 0.05 0.00 93 1018.8
20260506100056 11 214 0.0 0.0 0.00 0.05 0.00 93 1018.8
20260506095556 11 214 0.0 0.0 0.00 0.05 0.00 93 1018.7
20260506095056 11 214 0.0 0.0 0.00 0.05 0.00 93 1018.7
20260506094554 11 214 0.0 0.0 0.00 0.05 0.00 92 1018.8
20260506094054 11 214 0.0 0.0 0.00 0.05 0.00 92 1018.8
20260506093554 11 214 0.0 0.0 0.00 0.05 0.00 92 1018.8
20260506093054 11 214 0.0 0.0 0.00 0.05 0.00 92 1018.8
20260506092554 11 214 0.0 0.0 0.00 0.05 0.00 92 1018.8
20260506092052 11 214 0.0 0.0 0.00 0.05 0.00 92 1018.9
20260506091552 11 214 0.0 0.0 0.00 0.05 0.00 92 1018.8
20260506091052 11 214 0.0 0.0 0.00 0.05 0.00 92 1018.7
20260506090052 11 214 0.0 0.0 0.00 0.05 0.00 92 1018.8
20260506085552 11 214 0.0 0.0 0.00 0.05 0.00 92 1018.7
20260506085052 11 214 0.0 0.0 0.00 0.05 0.00 92 1018.7
20260506083551 11 214 0.0 0.0 0.00 0.05 0.00 92 1018.7
20260506083050 11 214 0.0 0.0 0.00 0.05 0.00 92 1018.8
20260506082550 11 214 0.0 0.0 0.00 0.05 0.00 92 1018.9
20260506082049 11 214 0.0 0.0 0.00 0.05 0.00 92 1018.8
20260506081550 11 214 0.0 0.0 0.00 0.05 0.00 91 1018.9
20260506081050 11 214 0.0 0.0 0.00 0.05 0.00 91 1018.9
20260506073046 11 214 0.0 0.0 0.00 0.05 0.00 91 1018.7
20260506072546 11 214 0.0 0.0 0.00 0.05 0.00 91 1018.6
20260506072046 11 214 0.0 0.0 0.00 0.05 0.00 91 1018.6
20260506071046 11 214 0.0 0.0 0.00 0.05 0.00 90 1018.5
20260506070546 11 214 0.0 0.0 0.00 0.05 0.00 91 1018.6
20260506062039 11 214 0.0 0.0 0.00 0.05 0.05 90 1018.3
20260506061539 11 214 0.0 0.0 0.00 0.05 0.05 91 1018.2
20260506060539 11 214 0.0 0.0 0.00 0.05 0.05 90 1018.2
20260506051034 11 214 0.0 0.0 0.00 0.05 0.05 90 1017.9
20260506050535 11 214 0.0 0.0 0.00 0.05 0.05 90 1018.0
20260506045035 11 214 0.0 0.0 0.00 0.05 0.05 90 1017.9
20260506044035 11 214 0.0 0.0 0.00 0.05 0.05 90 1017.8
20260506043535 11 214 0.0 0.0 0.00 0.05 0.05 90 1017.8
20260506043034 11 214 0.0 0.0 0.00 0.05 0.05 89 1017.8
20260506042534 11 214 0.0 0.0 0.00 0.05 0.05 89 1017.8
20260506041534 11 214 0.0 0.0 0.00 0.05 0.05 89 1017.6